Location: Dumbr?vi?a
(45.8833°N, 22.7000°E)
Time: 14:38:16
(UTC+00:00)

H-2A R/B - Pass Details

Date: 03 March 2021
Orbit: 577 x 654 km, 98.5° (Epoch: 15 April)

Event Time Altitude Azimuth Distance (km) Brightness Sun altitude
Rises 16:54:30 0° 6° (N) 2,807 5.4 -7.0°
Reaches altitude 10° 16:56:47 10° 357° (N) 1,901 4.6 -7.4°
Maximum altitude 17:00:30 34° 292° (WNW) 957 3.8 -8.1°
Drops below altitude 10° 17:04:13 10° 227° (SW) 1,896 5.3 -8.7°
Sets 17:06:30 0° 218° (SW) 2,797 6.0 -9.1°
